{"data":{"norad_id":67193,"epoch":"2026-09-20T13:14:13.059456Z","epoch_age_seconds":73981,"freshness":"FRESH","line1":"1 67193U 25304B   26263.55154004  .00003823  00000+0  32793-3 0  9995","line2":"2 67193  70.0021  43.1231 0003132 267.9624  92.1176 14.98335811 43070","mean_motion":14.98335811,"eccentricity":0.0003132,"inclination_deg":70.0021,"raan_deg":43.1231,"arg_perigee_deg":267.9624,"mean_anomaly_deg":92.1176,"bstar":0.00032793,"rev_number":4307,"period_min":96.106626393648,"perigee_km":569.8611261791,"apogee_km":574.21471574959,"semimajor_km":6950.1749209643,"source":"CELESTRAK","updated_at":"2026-09-21T09:00:36.135285Z"}}